KO4IEJ Weather Reports


Display with metric or nautical units.
time (UTC)temp
F
wind
direction
speed
MPH
gust
MPH
rain 1hr
in
rain 24hr
in
rain mn
in
humidity
%
barometer
mb
20260906214557 82 75 1.0 8.0 0.00 0.00 0.00 19 1025.7
20260906213053 82 309 4.0 9.0 0.00 0.00 0.00 16 1025.9
20260906211604 83 259 1.0 5.0 0.00 0.00 0.00 16 1026.1
20260906210103 82 307 2.0 9.0 0.00 0.00 0.00 18 1026.2
20260906204608 83 22 2.0 10.0 0.00 0.00 0.00 20 1026.1
20260906203104 81 43 5.0 17.0 0.00 0.00 0.00 21 1026.1
20260906201557 83 296 4.0 12.0 0.00 0.00 0.00 20 1026.2
20260906194609 84 170 1.0 7.0 0.00 0.00 0.00 22 1026.3
20260906193107 84 241 3.0 6.0 0.00 0.00 0.00 23 1026.4
20260906191604 83 234 3.0 9.0 0.00 0.00 0.00 23 1026.7
20260906184610 82 238 2.0 5.0 0.00 0.00 0.00 26 1027.1
20260906183107 80 223 1.0 6.0 0.00 0.00 0.00 27 1027.4
20260906181609 79 252 2.0 5.0 0.00 0.00 0.00 28 1027.6
20260906180105 77 267 2.0 7.0 0.00 0.00 0.00 30 1027.9
20260906174607 77 269 1.0 5.0 0.00 0.00 0.00 33 1028.0
20260906173103 77 228 1.0 8.0 0.00 0.00 0.00 35 1028.2
20260906171604 75 267 0.0 4.0 0.00 0.00 0.00 29 1028.3
20260906164604 73 229 1.0 3.0 0.00 0.00 0.00 40 1028.6
20260906163107 72 188 2.0 5.0 0.00 0.00 0.00 40 1028.7
20260906161602 71 217 2.0 5.0 0.00 0.00 0.00 42 1028.8
20260906160100 71 254 2.0 4.0 0.00 0.00 0.00 43 1028.7
20260906154558 69 181 2.0 5.0 0.00 0.00 0.00 42 1028.5
20260906153105 69 229 1.0 3.0 0.00 0.00 0.00 48 1028.5
20260906151607 69 239 1.0 4.0 0.00 0.00 0.00 46 1028.6
20260906150100 67 267 1.0 3.0 0.00 0.00 0.00 51 1028.7
20260906144631 66 217 1.0 3.0 0.00 0.00 0.00 53 1028.6
20260906143115 63 251 1.0 2.0 0.00 0.00 0.00 59 1028.7
20260906141605 61 236 1.0 2.0 0.00 0.00 0.00 60 1028.7
20260906140100 59 0 0.0 2.0 0.00 0.00 0.00 61 1028.6
20260906134604 57 0 0.0 0.0 0.00 0.00 0.00 69 1028.4
20260906133105 53 0 0.0 0.0 0.00 0.00 0.00 75 1028.5
20260906131610 51 0 0.0 0.0 0.00 0.00 0.00 75 1028.5
20260906130106 50 0 0.0 0.0 0.00 0.00 0.00 76 1028.2
20260906124605 49 0 0.0 0.0 0.00 0.00 0.00 77 1028.2
20260906123101 49 0 0.0 0.0 0.00 0.00 0.00 77 1028.1
20260906121555 49 0 0.0 0.0 0.00 0.00 0.00 76 1028.0
20260906120131 50 0 0.0 0.0 0.00 0.00 0.00 75 1028.0
20260906114558 50 0 0.0 0.0 0.00 0.00 0.00 77 1028.0
20260906113058 49 0 0.0 0.0 0.00 0.00 0.00 78 1027.8
20260906111607 50 0 0.0 1.0 0.00 0.00 0.00 76 1027.7
20260906110113 51 30 1.0 1.0 0.00 0.00 0.00 75 1027.6
20260906104601 51 30 1.0 1.0 0.00 0.00 0.00 75 1027.6
20260906103106 51 29 0.0 1.0 0.00 0.00 0.00 75 1027.6
20260906101605 52 30 0.0 1.0 0.00 0.00 0.00 74 1027.6
20260906100110 52 29 1.0 1.0 0.00 0.00 0.00 73 1027.7
20260906094558 52 31 1.0 2.0 0.00 0.00 0.00 73 1027.6
20260906093113 52 32 1.0 2.0 0.00 0.00 0.00 73 1027.7
20260906091605 52 33 1.0 2.0 0.00 0.00 0.00 73 1027.8
20260906090124 52 17 0.0 1.0 0.00 0.00 0.00 74 1027.8
20260906084554 53 17 0.0 1.0 0.00 0.00 0.00 73 1027.9
20260906083055 53 17 0.0 1.0 0.00 0.00 0.00 72 1027.9
20260906081604 53 17 0.0 1.0 0.00 0.00 0.00 72 1027.9
20260906080104 54 30 0.0 1.0 0.00 0.00 0.00 71 1027.6
20260906074558 54 30 1.0 2.0 0.00 0.00 0.00 70 1027.5
20260906073055 54 30 1.0 2.0 0.00 0.00 0.00 70 1027.5
20260906071611 55 27 1.0 1.0 0.00 0.00 0.00 70 1027.6
20260906070104 54 29 1.0 2.0 0.00 0.00 0.00 73 1027.4
20260906064556 54 29 1.0 1.0 0.00 0.00 0.00 71 1027.3
20260906063106 55 30 1.0 1.0 0.00 0.00 0.00 71 1027.3
20260906061555 56 30 0.0 2.0 0.00 0.00 0.00 71 1027.3
20260906060109 54 32 1.0 2.0 0.00 0.00 0.00 75 1027.4
20260906054558 55 32 0.0 2.0 0.00 0.00 0.00 75 1027.4
20260906053054 55 32 1.0 2.0 0.00 0.00 0.00 75 1027.5
20260906051555 56 32 1.0 1.0 0.00 0.00 0.00 73 1027.6
20260906050131 57 34 1.0 2.0 0.00 0.00 0.00 74 1027.8
20260906044556 57 34 1.0 2.0 0.00 0.00 0.00 76 1027.7
20260906043111 58 0 0.0 1.0 0.00 0.00 0.00 78 1028.0
20260906041605 58 0 0.0 1.0 0.00 0.00 0.00 79 1028.1
20260906040104 59 44 1.0 2.0 0.00 0.00 0.00 72 1028.1
20260906034611 61 82 0.0 11.0 0.00 0.00 0.00 72 1028.5
20260906033106 66 347 6.0 13.0 0.00 0.00 0.00 56 1028.3
20260906031601 67 265 2.0 6.0 0.00 0.00 0.00 51 1028.2
20260906030129 66 52 2.0 5.0 0.00 0.00 0.00 52 1027.7
20260906024557 64 359 0.0 1.0 0.00 0.00 0.00 55 1027.5
20260906023126 64 1 0.0 1.0 0.00 0.00 0.00 54 1027.2
20260906021613 66 341 0.0 1.0 0.00 0.00 0.00 57 1027.1
20260906020113 65 0 0.0 1.0 0.00 0.00 0.00 60 1027.0
20260906014628 64 0 0.0 2.0 0.00 0.00 0.00 64 1026.9
20260906013054 68 332 0.0 1.0 0.00 0.00 0.00 58 1027.1
20260906011553 70 0 0.0 1.0 0.00 0.00 0.00 52 1026.9
20260906004603 73 0 0.0 1.0 0.00 0.00 0.00 41 1026.7
20260906003109 74 134 1.0 3.0 0.00 0.00 0.00 40 1026.6
20260906001606 74 155 0.0 3.0 0.00 0.00 0.00 39 1026.7
20260906000105 75 122 1.0 5.0 0.00 0.00 0.00 38 1026.4
20260905234612 76 217 1.0 5.0 0.00 0.00 0.00 36 1026.3
20260905233104 78 172 1.0 5.0 0.00 0.00 0.00 34 1026.2
20260905231609 79 210 2.0 8.0 0.00 0.00 0.00 34 1026.2
20260905230105 79 247 1.0 5.0 0.00 0.00 0.00 31 1026.1
20260905224556 78 251 0.0 2.0 0.00 0.00 0.00 34 1026.1
20260905223056 81 215 1.0 3.0 0.00 0.00 0.00 22 1026.1
20260905221605 82 319 1.0 4.0 0.00 0.00 0.00 20 1026.2
20260905220106 82 277 0.0 5.0 0.00 0.00 0.00 24 1026.1